Date String (YYYY-MM-DD hh:mm:ss) UTC,Instrument flags,absolute air pressure of the measurement (hPa),sample flow rate (lpm),inlet stack bypass flow (lpm),air temperature of the measurement (°C),ambient temperature measured by the external sensor (°C),aerosol sample conditioner tube jacket temperature (°C),OPC LED temperature (°C),internal box temperature (°C),relative humidity of the measurement (%),span deviation,mass concentration of particles derived from Lorenz-Mie calculation of OPC scattering (μg/m³),mass concentration of particles derived from Lorenz-Mie calculation of OPC scattering (μg/m³),mass concentration of particles derived from Lorenz-Mie calculation of OPC scattering (μg/m³)
DateTimeUTC,F1_M11,P_M11,Q1_M11,Q2_M11,T1_M11,T2_M11,T3_M11,T4_M11,T5_M11,U1_M11,ZSPAN_M11,X0_M11,X2_M11,X1_M11
2024-05-10 22:00:00,SystemResetWarning,0833.9,5.02,000.00,024.4,021.9,000.0,033.2,025.3,021.5,0000.0,0009.84,0005.08,0004.78
2024-05-10 22:01:00,SystemResetWarning,0833.9,5.00,000.00,024.3,022.2,000.0,033.1,025.5,022.1,0000.0,0010.35,0005.09,0004.76
2024-05-10 22:02:00,SystemResetWarning,0833.9,5.00,000.00,024.4,022.6,000.0,033.0,025.7,022.2,0000.0,0010.45,0005.12,0004.78
2024-05-10 22:03:00,SystemResetWarning,0834.0,5.01,000.00,024.4,022.9,000.0,032.9,026.0,022.3,0000.0,0010.33,0005.11,0004.79
2024-05-10 22:04:00,SystemResetWarning,0833.9,4.99,000.00,024.5,023.2,000.0,032.9,026.1,021.9,0000.0,0009.99,0005.08,0004.76
2024-05-10 22:05:00,SystemResetWarning,0833.9,5.00,000.00,024.5,023.5,000.0,032.9,026.3,021.2,0000.0,0009.89,0005.07,0004.74
2024-05-10 22:06:00,SystemResetWarning,0833.9,5.00,000.00,024.6,023.7,000.0,032.9,026.3,021.4,0000.0,0009.50,0005.05,0004.71
2024-05-10 22:07:00,SystemResetWarning,0833.9,5.00,000.00,024.6,023.9,000.0,032.9,026.4,021.6,0000.0,0009.82,0005.08,0004.73
2024-05-10 22:08:00,SystemResetWarning,0833.8,5.00,000.00,024.7,024.0,000.0,032.9,026.5,021.4,0000.0,0010.21,0005.13,0004.78
2024-05-10 22:09:00,SystemResetWarning,0833.9,4.99,000.00,024.7,024.2,000.0,032.9,026.6,021.5,0000.0,0010.33,0005.15,0004.80
2024-05-10 22:10:00,SystemResetWarning,0833.9,5.00,000.00,024.8,024.3,000.0,032.9,026.7,021.4,0000.0,0010.72,0005.14,0004.81
2024-05-10 22:11:00,SystemResetWarning,0833.9,5.00,000.00,024.9,024.4,000.0,033.0,026.8,021.1,0000.0,0009.55,0005.15,0004.83
2024-05-10 22:12:00,SystemResetWarning,0833.8,5.00,000.00,024.9,024.6,000.0,033.0,026.9,020.9,0000.0,0008.98,0005.14,0004.86
2024-05-10 22:13:00,SystemResetWarning,0833.9,5.00,000.00,025.0,024.7,000.0,033.0,027.0,021.0,0000.0,0008.88,0005.10,0004.82
2024-05-10 22:14:00,SystemResetWarning,0833.9,5.00,000.00,025.0,024.7,000.0,033.1,027.0,020.3,0000.0,0008.77,0005.04,0004.75
2024-05-10 22:15:00,SystemResetWarning,0833.9,5.00,000.00,025.1,024.8,000.0,033.1,027.1,020.4,0000.0,0008.66,0005.01,0004.73
2024-05-10 22:16:00,SystemResetWarning,0833.8,5.00,000.00,025.2,024.8,000.0,033.2,027.0,020.6,0000.0,0008.65,0004.98,0004.70
2024-05-10 22:17:00,SystemResetWarning,0833.8,4.99,000.00,025.0,023.3,000.0,033.3,026.2,020.9,0000.0,0008.65,0004.97,0004.69
2024-05-10 22:18:00,SystemResetWarning,0833.8,5.02,000.00,024.6,021.9,000.0,033.3,025.4,021.2,0000.0,0008.81,0004.94,0004.66
2024-05-10 22:19:00,SystemResetWarning,0833.8,5.01,000.00,024.4,022.0,000.0,033.2,025.4,021.4,0000.0,0008.55,0004.86,0004.59
2024-05-10 22:20:00,SystemResetWarning,0833.8,5.00,000.00,024.4,022.3,000.0,033.1,025.6,021.8,0000.0,0009.18,0004.83,0004.53
2024-05-10 22:21:00,SystemResetWarning,0833.8,5.00,000.00,024.4,022.7,000.0,033.0,025.8,021.6,0000.0,0008.55,0004.82,0004.51
2024-05-10 22:22:00,SystemResetWarning,0833.8,5.00,000.00,024.5,023.0,000.0,032.9,026.0,021.0,0000.0,0008.52,0004.79,0004.49
2024-05-10 22:23:00,SystemResetWarning,0833.8,5.00,000.00,024.5,023.3,000.0,032.9,026.1,020.2,0000.0,0008.42,0004.70,0004.41
2024-05-10 22:24:00,SystemResetWarning,0833.8,5.00,000.00,024.5,023.5,000.0,032.9,026.3,019.9,0000.0,0008.26,0004.61,0004.35
2024-05-10 22:25:00,SystemResetWarning,0833.8,5.00,000.00,024.6,023.7,000.0,032.9,026.4,019.7,0000.0,0008.27,0004.60,0004.32
2024-05-10 22:26:00,SystemResetWarning,0833.8,5.00,000.00,024.6,023.9,000.0,032.9,026.5,019.5,0000.0,0008.32,0004.56,0004.27
2024-05-10 22:27:00,SystemResetWarning,0833.8,5.00,000.00,024.7,024.1,000.0,032.9,026.6,018.8,0000.0,0008.58,0004.52,0004.23
2024-05-10 22:28:00,SystemResetWarning,0833.8,5.00,000.00,024.7,024.2,000.0,033.0,026.7,019.1,0000.0,0008.56,0004.52,0004.21
2024-05-10 22:29:00,SystemResetWarning,0833.8,5.00,000.00,024.8,024.3,000.0,033.0,026.7,018.7,0000.0,0008.20,0004.50,0004.20
2024-05-10 22:30:00,SystemResetWarning,0833.8,5.00,000.00,024.9,024.4,000.0,033.0,026.8,018.7,0000.0,0007.99,0004.51,0004.22
2024-05-10 22:31:00,SystemResetWarning,0833.8,5.00,000.00,024.9,024.5,000.0,033.0,026.8,019.5,0000.0,0007.30,0004.50,0004.23
2024-05-10 22:32:00,SystemResetWarning,0833.8,5.00,000.00,025.0,024.6,000.0,033.1,026.9,019.7,0000.0,0007.50,0004.54,0004.26
2024-05-10 22:33:00,SystemResetWarning,0833.8,5.00,000.00,025.0,024.7,000.0,033.1,026.9,019.7,0000.0,0008.12,0004.57,0004.28
2024-05-10 22:34:00,SystemResetWarning,0833.8,5.00,000.00,025.1,024.7,000.0,033.1,027.0,019.9,0000.0,0009.15,0004.62,0004.32
2024-05-10 22:35:00,SystemResetWarning,0833.8,5.00,000.00,025.1,024.8,000.0,033.2,027.1,019.8,0000.0,0009.54,0004.69,0004.38
2024-05-10 22:36:00,SystemResetWarning,0833.8,5.00,000.00,025.2,024.9,000.0,033.2,027.1,020.2,0000.0,0009.65,0004.73,0004.45
2024-05-10 22:37:00,SystemResetWarning,0833.8,5.00,000.00,025.2,025.0,000.0,033.3,027.2,020.3,0000.0,0009.69,0004.79,0004.52
2024-05-10 22:38:00,SystemResetWarning,0833.8,4.98,000.00,025.2,024.1,000.0,033.3,026.6,020.0,0000.0,0009.43,0004.87,0004.59
2024-05-10 22:39:00,SystemResetWarning,0833.8,5.01,000.00,024.8,022.0,000.0,033.4,025.5,020.5,0000.0,0009.58,0004.94,0004.66
2024-05-10 22:40:00,SystemResetWarning,0833.8,5.01,000.00,024.5,021.8,000.0,033.3,025.4,020.3,0000.0,0009.67,0005.01,0004.72
2024-05-10 22:41:00,SystemResetWarning,0833.7,4.99,000.00,024.4,022.1,000.0,033.2,025.6,020.6,0000.0,0009.62,0005.05,0004.77
2024-05-10 22:42:00,SystemResetWarning,0833.7,5.01,000.00,024.4,022.5,000.0,033.1,025.8,020.5,0000.0,0009.76,0005.12,0004.84
2024-05-10 22:43:00,SystemResetWarning,0833.8,4.99,000.00,024.5,022.9,000.0,033.0,026.0,020.7,0000.0,0010.05,0005.13,0004.87
2024-05-10 22:44:00,SystemResetWarning,0833.8,4.99,000.00,024.5,023.2,000.0,033.0,026.2,020.4,0000.0,0010.07,0005.14,0004.89
2024-05-10 22:45:00,SystemResetWarning,0833.8,5.00,000.00,024.6,023.5,000.0,033.0,026.3,020.2,0000.0,0008.87,0005.18,0004.93
2024-05-10 22:46:00,SystemResetWarning,0833.7,5.00,000.00,024.6,023.7,000.0,033.0,026.3,020.0,0000.0,0008.90,0005.27,0005.01
2024-05-10 22:47:00,SystemResetWarning,0833.7,5.01,000.00,024.7,023.9,000.0,033.0,026.5,020.0,0000.0,0009.35,0005.33,0005.05
2024-05-10 22:48:00,SystemResetWarning,0833.7,5.00,000.00,024.7,024.0,000.0,033.0,026.6,019.9,0000.0,0009.38,0005.37,0005.09
2024-05-10 22:49:00,SystemResetWarning,0833.7,4.99,000.00,024.8,024.2,000.0,033.0,026.6,019.7,0000.0,0009.44,0005.41,0005.14
2024-05-10 22:50:00,SystemResetWarning,0833.7,5.00,000.00,024.8,024.3,000.0,033.0,026.7,019.7,0000.0,0009.65,0005.41,0005.15
2024-05-10 22:51:00,SystemResetWarning,0833.7,5.00,000.00,024.9,024.4,000.0,033.0,026.7,019.8,0000.0,0010.22,0005.40,0005.17
2024-05-10 22:52:00,SystemResetWarning,0833.7,5.00,000.00,024.9,024.5,000.0,033.1,026.8,019.8,0000.0,0010.86,0005.41,0005.19
2024-05-10 22:53:00,SystemResetWarning,0833.7,5.00,000.00,025.0,024.5,000.0,033.1,026.9,019.9,0000.0,0011.77,0005.40,0005.17
2024-05-10 22:54:00,SystemResetWarning,0833.7,5.00,000.00,025.0,024.6,000.0,033.1,026.9,019.9,0000.0,0011.83,0005.41,0005.18
2024-05-10 22:55:00,SystemResetWarning,0833.7,5.00,000.00,025.1,024.7,000.0,033.2,027.0,020.2,0000.0,0011.87,0005.44,0005.20
2024-05-10 22:56:00,SystemResetWarning,0833.7,5.00,000.00,025.1,024.7,000.0,033.2,027.0,020.5,0000.0,0011.86,0005.44,0005.20
2024-05-10 22:57:00,SystemResetWarning,0833.7,5.00,000.00,025.2,024.8,000.0,033.3,027.1,020.6,0000.0,0011.72,0005.40,0005.17
2024-05-10 22:58:00,SystemResetWarning,0833.7,5.00,000.00,025.2,024.9,000.0,033.3,027.1,020.6,0000.0,0011.31,0005.43,0005.18
2024-05-10 22:59:00,SystemResetWarning,0833.6,4.99,000.00,025.1,023.6,000.0,033.4,026.3,020.7,0000.0,0011.87,0005.48,0005.20
